QPF
0.02 0.02 0.02 0.02 0.02 0.02 0.02 0.02 0.02 0.02 0.03 0.03 0.02 0.02 0.03 0.04 0.04 0.04 0.05 0.06 0.07 0.09 0.11 0.10 0.08 0.06 0.06 0.06 0.05 0.05 0.04 0.04 0.04 0.05 0.05 0.04 0.04 0.04 0.04 0.03 0.02 0.01 0.01
0.03 0.03 0.02 0.02 0.02 0.02 0.02 0.02 0.02 0.03 0.03 0.03 0.03 0.02 0.02 0.03 0.04 0.04 0.05 0.07 0.09 0.09 0.09 0.09 0.09 0.07 0.06 0.06 0.06 0.05 0.05 0.05 0.05 0.05 0.05 0.05 0.04 0.04 0.03 0.03 0.02 0.01 0.01
0.03 0.04 0.03 0.02 0.02 0.02 0.02 0.02 0.02 0.02 0.03 0.03 0.03 0.02 0.03 0.04 0.04 0.05 0.06 0.07 0.09 0.09 0.09 0.10 0.08 0.06 0.06 0.05 0.04 0.04 0.05 0.05 0.05 0.05 0.06 0.04 0.03 0.03 0.02 0.02 0.01 0.01 0.01
0.02 0.03 0.03 0.02 0.02 0.02 0.02 0.02 0.01 0.02 0.02 0.02 0.03 0.04 0.04 0.05 0.05 0.06 0.06 0.07 0.10 0.11 0.12 0.12 0.08 0.05 0.05 0.06 0.06 0.05 0.05 0.05 0.05 0.05 0.05 0.04 0.03 0.03 0.02 0.01 0.02 0.02 0.02
0.02 0.02 0.01 0.02 0.02 0.02 0.03 0.03 0.02 0.02 0.02 0.02 0.03 0.04 0.05 0.05 0.06 0.08 0.09 0.11 0.10 0.09 0.08 0.07 0.08 0.07 0.06 0.06 0.06 0.05 0.06 0.07 0.07 0.07 0.05 0.04 0.03 0.03 0.03 0.02 0.02 0.03 0.03
0.03 0.02 0.02 0.02 0.02 0.02 0.03 0.03 0.02 0.02 0.02 0.03 0.04 0.04 0.05 0.06 0.07 0.07 0.07 0.06 0.06 0.07 0.07 0.07 0.07 0.08 0.09 0.10 0.10 0.08 0.06 0.06 0.08 0.09 0.08 0.06 0.04 0.03 0.02 0.02 0.02 0.02 0.03
0.02 0.02 0.01 0.02 0.03 0.03 0.02 0.02 0.02 0.02 0.02 0.02 0.02 0.03 0.05 0.05 0.06 0.07 0.06 0.06 0.05 0.05 0.06 0.06 0.07 0.07 0.07 0.09 0.11 0.11 0.10 0.09 0.08 0.07 0.09 0.09 0.08 0.05 0.03 0.02 0.02 0.02 0.02
0.01 0.01 0.01 0.03 0.04 0.03 0.02 0.02 0.02 0.02 0.02 0.02 0.02 0.03 0.05 0.05 0.05 0.05 0.05 0.05 0.05 0.05 0.05 0.06 0.07 0.07 0.07 0.06 0.07 0.09 0.10 0.10 0.08 0.06 0.07 0.07 0.08 0.08 0.06 0.03 0.03 0.03 0.03
0.01 0.01 0.01 0.03 0.05 0.04 0.04 0.03 0.04 0.03 0.03 0.03 0.03 0.04 0.05 0.06 0.05 0.04 0.04 0.05 0.06 0.06 0.05 0.05 0.06 0.06 0.07 0.09 0.10 0.10 0.09 0.09 0.09 0.06 0.06 0.06 0.06 0.07 0.08 0.06 0.04 0.04 0.05
0.01 0.01 0.01 0.02 0.03 0.04 0.05 0.04 0.04 0.03 0.03 0.05 0.05 0.04 0.04 0.05 0.05 0.04 0.04 0.05 0.04 0.04 0.04 0.06 0.07 0.07 0.07 0.07 0.09 0.12 0.12 0.11 0.09 0.08 0.07 0.06 0.05 0.06 0.07 0.07 0.07 0.06 0.06
0.01 0.02 0.01 0.01 0.01 0.02 0.02 0.03 0.03 0.03 0.03 0.04 0.04 0.03 0.03 0.04 0.05 0.05 0.05 0.05 0.05 0.04 0.05 0.05 0.07 0.08 0.06 0.06 0.06 0.06 0.07 0.08 0.09 0.09 0.09 0.08 0.07 0.06 0.06 0.06 0.05 0.05 0.05
0.01 0.02 0.02 0.01 0.01 0.01 0.01 0.02 0.02 0.02 0.03 0.05 0.03 0.03 0.03 0.03 0.04 0.05 0.05 0.06 0.05 0.05 0.05 0.04 0.04 0.04 0.05 0.05 0.06 0.06 0.05 0.06 0.06 0.07 0.06 0.05 0.04 0.03 0.03 0.04 0.03 0.03 0.03
0.01 0.02 0.02 0.02 0.02 0.01 0.01 0.01 0.02 0.02 0.04 0.06 0.05 0.04 0.03 0.03 0.03 0.05 0.06 0.05 0.05 0.05 0.05 0.04 0.04 0.04 0.04 0.04 0.04 0.05 0.05 0.05 0.05 0.05 0.04 0.03 0.02 0.01 0.01 0.02 0.02 0.02 0.02
0.01 0.02 0.02 0.03 0.02 0.02 0.02 0.03 0.04 0.04 0.06 0.05 0.03 0.03 0.03 0.02 0.02 0.03 0.05 0.05 0.05 0.05 0.04 0.03 0.03 0.04 0.03 0.02 0.03 0.03 0.04 0.05 0.03 0.03 0.02 0.02 0.01 0.01 0.01 0.01 0.02 0.02 0.02
0.02 0.02 0.02 0.03 0.02 0.03 0.04 0.06 0.05 0.05 0.07 0.05 0.02 0.02 0.02 0.03 0.03 0.03 0.04 0.04 0.03 0.02 0.02 0.02 0.03 0.04 0.02 0.01 0.02 0.02 0.03 0.04 0.03 0.03 0.02 0.01 0.01 0.01 0.01 0.01 0.01 0.01 0.02
0.02 0.02 0.03 0.03 0.03 0.05 0.07 0.06 0.06 0.07 0.08 0.04 0.02 0.02 0.01 0.01 0.02 0.02 0.02 0.02 0.02 0.02 0.02 0.03 0.03 0.03 0.02 0.01 0.01 0.02 0.02 0.03 0.02 0.02 0.02 0.01 0.01 0.01 0.01 0.01 0.01 0.02 0.02
0.02 0.02 0.03 0.04 0.04 0.06 0.06 0.06 0.08 0.09 0.06 0.03 0.03 0.02 0.02 0.02 0.02 0.01 0.01 0.01 0.01 0.02 0.02 0.01 0.01 0.03 0.03 0.02 0.02 0.02 0.02 0.02 0.02 0.01 0.01 0.01 0.01 0.01 0.01 0.01 0.02 0.02 0.03
0.02 0.02 0.02 0.02 0.03 0.05 0.05 0.07 0.10 0.06 0.02 0.02 0.02 0.02 0.02 0.02 0.02 0.02 0.01 0.01 0.02 0.02 0.02 0.01 0.01 0.03 0.04 0.03 0.02 0.02 0.02 0.02 0.01 0.01 0.01 0.01 0.01 0.01 0.00 0.00 0.00 0.01 0.01
0.02 0.02 0.02 0.02 0.03 0.05 0.07 0.07 0.04 0.02 0.01 0.02 0.02 0.02 0.02 0.02 0.01 0.01 0.01 0.01 0.01 0.01 0.01 0.01 0.02 0.04 0.05 0.03 0.03 0.02 0.01 0.01 0.01 0.01 0.01 0.01 0.01 0.01 0.01 0.01 0.00 0.01 0.01
0.02 0.02 0.02 0.02 0.03 0.04 0.04 0.02 0.01 0.01 0.02 0.02 0.03 0.03 0.02 0.01 0.01 0.01 0.01 0.01 0.01 0.01 0.01 0.01 0.02 0.03 0.03 0.02 0.02 0.01 0.01 0.01 0.01 0.01 0.01 0.01 0.01 0.01 0.01 0.01 0.01 0.01 0.02
0.02 0.02 0.02 0.03 0.03 0.04 0.02 0.02 0.01 0.02 0.02 0.03 0.02 0.01 0.01 0.01 0.01 0.01 0.02 0.01 0.01 0.01 0.01 0.01 0.01 0.03 0.02 0.01 0.01 0.01 0.01 0.01 0.02 0.02 0.02 0.02 0.02 0.02 0.01 0.01 0.01 0.01 0.02
0.03 0.03 0.03 0.03 0.03 0.03 0.02 0.02 0.02 0.02 0.04 0.03 0.02 0.01 0.01 0.01 0.01 0.02 0.02 0.02 0.01 0.01 0.01 0.01 0.03 0.03 0.02 0.01 0.01 0.01 0.02 0.03 0.03 0.04 0.03 0.02 0.02 0.01 0.01 0.01 0.01 0.01 0.01
0.04 0.04 0.03 0.02 0.02 0.02 0.02 0.03 0.02 0.03 0.03 0.02 0.02 0.02 0.01 0.01 0.01 0.02 0.02 0.01 0.01 0.01 0.01 0.02 0.04 0.04 0.02 0.02 0.03 0.04 0.05 0.04 0.04 0.04 0.03 0.02 0.01 0.01 0.00 0.01 0.01 0.01 0.02
0.03 0.03 0.03 0.02 0.02 0.02 0.02 0.03 0.02 0.02 0.02 0.01 0.01 0.01 0.01 0.01 0.02 0.03 0.03 0.03 0.02 0.01 0.02 0.02 0.03 0.03 0.03 0.03 0.03 0.04 0.03 0.03 0.03 0.03 0.02 0.01 0.01 0.01 0.01 0.01 0.02 0.02 0.01
0.03 0.03 0.03 0.02 0.02 0.02 0.02 0.02 0.02 0.02 0.01 0.01 0.00 0.00 0.01 0.01 0.02 0.02 0.02 0.02 0.02 0.02 0.01 0.01 0.02 0.01 0.02 0.02 0.02 0.02 0.02 0.02 0.02 0.02 0.01 0.01 0.02 0.02 0.01 0.01 0.01 0.02 0.02
0.02 0.01 0.01 0.01 0.01 0.01 0.01 0.01 0.02 0.02 0.01 0.01 0.01 0.01 0.01 0.01 0.01 0.02 0.01 0.01 0.01 0.01 0.01 0.02 0.02 0.01 0.02 0.02 0.02 0.02 0.01 0.01 0.01 0.01 0.02 0.03 0.03 0.03 0.02 0.01 0.01 0.01 0.02
MSLP
1013.97 1013.92 1013.84 1013.72 1013.56 1013.35 1013.09 1012.79 1012.43 1012.01 1011.54 1011.02 1010.45 1009.85 1009.23 1008.60 1008.00 1007.42 1006.89 1006.41 1005.99 1005.63 1005.34 1005.12 1004.98 1004.93 1004.95 1005.04 1005.19 1005.37 1005.54 1005.68 1005.77 1005.80 1005.77 1005.68 1005.58 1005.47 1005.40 1005.37 1005.39 1005.46 1005.57
1014.13 1014.12 1014.06 1013.94 1013.76 1013.53 1013.25 1012.92 1012.55 1012.14 1011.68 1011.16 1010.59 1009.98 1009.34 1008.69 1008.06 1007.46 1006.92 1006.45 1006.05 1005.73 1005.48 1005.30 1005.18 1005.13 1005.15 1005.21 1005.32 1005.45 1005.59 1005.72 1005.82 1005.87 1005.87 1005.83 1005.76 1005.67 1005.58 1005.50 1005.44 1005.41 1005.41
1014.17 1014.24 1014.23 1014.12 1013.94 1013.69 1013.39 1013.05 1012.67 1012.25 1011.78 1011.26 1010.69 1010.07 1009.42 1008.76 1008.11 1007.52 1006.99 1006.54 1006.18 1005.91 1005.71 1005.57 1005.49 1005.45 1005.45 1005.49 1005.55 1005.64 1005.74 1005.85 1005.94 1006.01 1006.04 1006.03 1005.98 1005.90 1005.79 1005.67 1005.55 1005.44 1005.34
1014.14 1014.30 1014.36 1014.30 1014.13 1013.87 1013.55 1013.18 1012.78 1012.34 1011.87 1011.35 1010.77 1010.15 1009.50 1008.84 1008.20 1007.62 1007.11 1006.70 1006.38 1006.15 1005.99 1005.90 1005.84 1005.80 1005.79 1005.79 1005.82 1005.86 1005.93 1006.01 1006.09 1006.16 1006.20 1006.22 1006.19 1006.11 1006.00 1005.85 1005.68 1005.51 1005.34
1014.08 1014.35 1014.47 1014.45 1014.30 1014.05 1013.71 1013.32 1012.90 1012.44 1011.95 1011.43 1010.85 1010.24 1009.60 1008.96 1008.34 1007.78 1007.30 1006.91 1006.62 1006.42 1006.28 1006.20 1006.15 1006.11 1006.08 1006.06 1006.05 1006.06 1006.09 1006.14 1006.21 1006.28 1006.34 1006.36 1006.35 1006.28 1006.16 1005.99 1005.79 1005.58 1005.38
1014.06 1014.40 1014.58 1014.60 1014.47 1014.21 1013.86 1013.44 1013.00 1012.52 1012.02 1011.49 1010.93 1010.33 1009.71 1009.09 1008.50 1007.96 1007.50 1007.13 1006.85 1006.65 1006.52 1006.44 1006.38 1006.32 1006.27 1006.22 1006.19 1006.17 1006.19 1006.23 1006.29 1006.36 1006.42 1006.45 1006.44 1006.37 1006.25 1006.08 1005.87 1005.65 1005.44
1014.07 1014.45 1014.68 1014.72 1014.60 1014.33 1013.97 1013.53 1013.06 1012.56 1012.05 1011.52 1010.97 1010.39 1009.80 1009.21 1008.65 1008.13 1007.68 1007.32 1007.03 1006.83 1006.68 1006.57 1006.48 1006.41 1006.34 1006.27 1006.23 1006.20 1006.21 1006.25 1006.31 1006.38 1006.44 1006.48 1006.47 1006.41 1006.30 1006.13 1005.93 1005.71 1005.51
1014.11 1014.51 1014.75 1014.80 1014.68 1014.40 1014.02 1013.56 1013.06 1012.55 1012.02 1011.49 1010.94 1010.39 1009.83 1009.27 1008.74 1008.24 1007.81 1007.44 1007.14 1006.91 1006.74 1006.60 1006.49 1006.39 1006.31 1006.24 1006.19 1006.18 1006.19 1006.24 1006.31 1006.38 1006.45 1006.49 1006.49 1006.43 1006.32 1006.16 1005.98 1005.78 1005.59
1014.18 1014.56 1014.78 1014.82 1014.69 1014.41 1014.01 1013.53 1013.01 1012.47 1011.93 1011.39 1010.85 1010.32 1009.78 1009.25 1008.75 1008.28 1007.85 1007.49 1007.18 1006.93 1006.73 1006.57 1006.44 1006.33 1006.25 1006.18 1006.15 1006.15 1006.18 1006.24 1006.32 1006.40 1006.47 1006.51 1006.51 1006.45 1006.35 1006.21 1006.04 1005.86 1005.68
1014.25 1014.58 1014.77 1014.80 1014.65 1014.36 1013.95 1013.45 1012.91 1012.35 1011.79 1011.24 1010.70 1010.17 1009.66 1009.16 1008.68 1008.24 1007.84 1007.48 1007.18 1006.92 1006.72 1006.55 1006.41 1006.31 1006.23 1006.18 1006.17 1006.19 1006.24 1006.31 1006.39 1006.48 1006.54 1006.57 1006.57 1006.51 1006.41 1006.28 1006.12 1005.95 1005.79
1014.30 1014.58 1014.74 1014.74 1014.58 1014.28 1013.86 1013.35 1012.79 1012.21 1011.63 1011.07 1010.52 1010.00 1009.49 1009.02 1008.57 1008.16 1007.79 1007.46 1007.18 1006.95 1006.75 1006.60 1006.47 1006.38 1006.33 1006.30 1006.30 1006.33 1006.39 1006.46 1006.54 1006.61 1006.66 1006.68 1006.66 1006.60 1006.50 1006.37 1006.22 1006.07 1005.90
1014.34 1014.57 1014.70 1014.68 1014.51 1014.21 1013.78 1013.27 1012.70 1012.10 1011.50 1010.91 1010.35 1009.83 1009.33 1008.88 1008.46 1008.09 1007.76 1007.48 1007.24 1007.04 1006.88 1006.75 1006.66 1006.59 1006.55 1006.54 1006.55 1006.58 1006.63 1006.68 1006.74 1006.78 1006.80 1006.80 1006.76 1006.69 1006.59 1006.47 1006.32 1006.17 1006.00
1014.38 1014.57 1014.67 1014.63 1014.46 1014.16 1013.73 1013.22 1012.64 1012.03 1011.42 1010.81 1010.24 1009.71 1009.22 1008.78 1008.39 1008.06 1007.78 1007.55 1007.36 1007.21 1007.09 1007.01 1006.94 1006.90 1006.87 1006.86 1006.86 1006.87 1006.89 1006.90 1006.92 1006.92 1006.90 1006.87 1006.81 1006.73 1006.63 1006.51 1006.37 1006.22 1006.04
1014.43 1014.59 1014.66 1014.61 1014.43 1014.13 1013.72 1013.21 1012.63 1012.02 1011.39 1010.78 1010.19 1009.66 1009.17 1008.74 1008.38 1008.09 1007.85 1007.66 1007.52 1007.42 1007.36 1007.31 1007.27 1007.24 1007.21 1007.18 1007.15 1007.12 1007.09 1007.05 1007.01 1006.96 1006.91 1006.84 1006.76 1006.68 1006.58 1006.46 1006.33 1006.18 1006.00
1014.49 1014.63 1014.67 1014.61 1014.42 1014.12 1013.72 1013.22 1012.65 1012.04 1011.42 1010.80 1010.21 1009.67 1009.18 1008.77 1008.42 1008.15 1007.94 1007.79 1007.69 1007.62 1007.59 1007.56 1007.53 1007.50 1007.46 1007.40 1007.33 1007.24 1007.15 1007.05 1006.95 1006.85 1006.75 1006.66 1006.57 1006.49 1006.39 1006.29 1006.17 1006.02 1005.84
1014.55 1014.66 1014.68 1014.59 1014.40 1014.10 1013.69 1013.21 1012.66 1012.06 1011.45 1010.84 1010.26 1009.71 1009.23 1008.81 1008.47 1008.20 1008.00 1007.86 1007.78 1007.73 1007.70 1007.68 1007.65 1007.61 1007.54 1007.44 1007.32 1007.17 1007.02 1006.86 1006.70 1006.56 1006.43 1006.32 1006.23 1006.14 1006.06 1005.97 1005.86 1005.72 1005.53
1014.58 1014.66 1014.65 1014.53 1014.32 1014.01 1013.61 1013.14 1012.61 1012.04 1011.45 1010.85 1010.28 1009.74 1009.25 1008.83 1008.47 1008.19 1007.98 1007.83 1007.74 1007.68 1007.64 1007.61 1007.57 1007.50 1007.39 1007.26 1007.09 1006.90 1006.69 1006.48 1006.28 1006.11 1005.96 1005.84 1005.75 1005.67 1005.60 1005.52 1005.41 1005.27 1005.08
1014.56 1014.60 1014.55 1014.40 1014.15 1013.83 1013.43 1012.98 1012.47 1011.92 1011.36 1010.79 1010.24 1009.70 1009.21 1008.76 1008.38 1008.07 1007.83 1007.65 1007.52 1007.44 1007.38 1007.32 1007.26 1007.17 1007.04 1006.87 1006.67 1006.45 1006.20 1005.96 1005.74 1005.55 1005.39 1005.27 1005.18 1005.11 1005.04 1004.96 1004.85 1004.70 1004.50
1014.45 1014.45 1014.35 1014.16 1013.89 1013.55 1013.15 1012.70 1012.22 1011.71 1011.17 1010.63 1010.09 1009.56 1009.05 1008.59 1008.17 1007.82 1007.53 1007.31 1007.14 1007.02 1006.94 1006.86 1006.78 1006.67 1006.53 1006.36 1006.14 1005.90 1005.65 1005.39 1005.16 1004.96 1004.80 1004.67 1004.58 1004.50 1004.43 1004.34 1004.21 1004.03 1003.80
1014.26 1014.22 1014.07 1013.84 1013.53 1013.17 1012.77 1012.33 1011.87 1011.38 1010.88 1010.36 1009.83 1009.30 1008.78 1008.29 1007.84 1007.44 1007.10 1006.84 1006.63 1006.49 1006.38 1006.30 1006.21 1006.11 1005.98 1005.81 1005.60 1005.36 1005.10 1004.85 1004.61 1004.40 1004.23 1004.09 1003.98 1003.89 1003.79 1003.67 1003.51 1003.29 1003.02
1013.99 1013.91 1013.72 1013.45 1013.12 1012.74 1012.33 1011.90 1011.45 1010.98 1010.50 1010.00 1009.47 1008.94 1008.41 1007.88 1007.40 1006.96 1006.59 1006.29 1006.06 1005.90 1005.79 1005.71 1005.64 1005.56 1005.45 1005.30 1005.11 1004.88 1004.63 1004.37 1004.12 1003.90 1003.70 1003.54 1003.41 1003.28 1003.15 1002.98 1002.77 1002.51 1002.18
1013.66 1013.55 1013.33 1013.03 1012.68 1012.28 1011.87 1011.44 1011.00 1010.54 1010.07 1009.57 1009.05 1008.50 1007.95 1007.40 1006.89 1006.42 1006.02 1005.70 1005.47 1005.31 1005.22 1005.16 1005.13 1005.08 1005.00 1004.87 1004.70 1004.48 1004.22 1003.95 1003.69 1003.43 1003.21 1003.01 1002.84 1002.67 1002.49 1002.27 1002.01 1001.69 1001.32
1013.32 1013.18 1012.94 1012.62 1012.25 1011.84 1011.42 1010.99 1010.55 1010.09 1009.62 1009.11 1008.58 1008.02 1007.44 1006.87 1006.34 1005.85 1005.45 1005.13 1004.90 1004.77 1004.70 1004.68 1004.68 1004.66 1004.61 1004.51 1004.34 1004.12 1003.86 1003.56 1003.26 1002.97 1002.70 1002.45 1002.23 1002.01 1001.79 1001.53 1001.22 1000.86 1000.45
1012.97 1012.82 1012.56 1012.23 1011.85 1011.43 1011.01 1010.57 1010.12 1009.66 1009.17 1008.65 1008.09 1007.51 1006.92 1006.33 1005.78 1005.29 1004.88 1004.57 1004.37 1004.26 1004.22 1004.24 1004.27 1004.28 1004.24 1004.15 1003.98 1003.74 1003.44 1003.11 1002.77 1002.43 1002.11 1001.82 1001.56 1001.30 1001.04 1000.76 1000.43 1000.05 999.61
1012.64 1012.47 1012.21 1011.87 1011.48 1011.06 1010.63 1010.18 1009.73 1009.25 1008.74 1008.20 1007.62 1007.01 1006.39 1005.78 1005.22 1004.73 1004.33 1004.03 1003.84 1003.75 1003.74 1003.78 1003.82 1003.84 1003.81 1003.70 1003.51 1003.24 1002.91 1002.54 1002.15 1001.77 1001.42 1001.10 1000.81 1000.53 1000.27 999.98 999.65 999.27 998.84
1012.30 1012.12 1011.85 1011.51 1011.12 1010.70 1010.26 1009.81 1009.35 1008.85 1008.32 1007.75 1007.15 1006.52 1005.87 1005.25 1004.67 1004.17 1003.77 1003.47 1003.29 1003.21 1003.20 1003.23 1003.27 1003.28 1003.23 1003.09 1002.87 1002.57 1002.21 1001.80 1001.39 1000.99 1000.62 1000.29 1000.01 999.75 999.50 999.24 998.94 998.59 998.19
Thickness
5745 5743 5740 5737 5734 5730 5726 5722 5719 5716 5713 5710 5708 5705 5704 5702 5700 5698 5695 5692 5690 5688 5685 5685 5682 5682 5682 5680 5680 5678 5678 5678 5677 5676 5676 5679 5679 5679 5679 5680 5679 5679 5678
5738 5736 5734 5731 5728 5724 5720 5717 5713 5710 5706 5703 5700 5698 5696 5694 5693 5691 5687 5685 5683 5680 5680 5677 5676 5675 5674 5673 5672 5671 5671 5673 5672 5670 5669 5670 5672 5671 5675 5674 5673 5673 5673
5733 5730 5727 5725 5722 5718 5714 5711 5706 5703 5699 5696 5694 5692 5689 5687 5686 5683 5681 5678 5675 5673 5671 5671 5669 5668 5668 5667 5665 5665 5664 5665 5666 5665 5663 5663 5663 5664 5668 5667 5667 5666 5666
5730 5725 5722 5719 5716 5712 5709 5705 5700 5696 5693 5689 5687 5683 5681 5679 5677 5674 5673 5671 5669 5667 5665 5663 5662 5661 5663 5661 5661 5661 5660 5658 5659 5660 5658 5657 5658 5655 5658 5661 5662 5661 5660
5725 5720 5717 5713 5711 5707 5703 5699 5694 5690 5687 5683 5680 5676 5675 5672 5671 5667 5665 5663 5663 5660 5659 5658 5656 5655 5656 5656 5655 5653 5654 5654 5654 5654 5654 5652 5652 5651 5649 5650 5652 5653 5654
5719 5715 5713 5709 5705 5702 5698 5693 5687 5683 5681 5677 5674 5670 5667 5665 5662 5659 5658 5658 5657 5655 5654 5652 5651 5650 5651 5650 5650 5649 5649 5648 5647 5647 5647 5646 5645 5645 5644 5644 5644 5644 5646
5714 5710 5706 5702 5698 5694 5690 5686 5682 5677 5675 5671 5668 5664 5661 5658 5655 5653 5653 5651 5651 5651 5649 5648 5646 5646 5646 5646 5645 5644 5644 5643 5641 5640 5640 5640 5640 5639 5638 5636 5636 5635 5638
5709 5705 5701 5696 5692 5688 5684 5681 5677 5673 5669 5666 5662 5659 5656 5655 5653 5650 5648 5647 5646 5646 5644 5642 5641 5641 5641 5642 5641 5641 5640 5639 5637 5636 5634 5633 5633 5632 5631 5629 5627 5627 5629
5703 5700 5696 5692 5687 5683 5679 5676 5672 5668 5665 5662 5658 5655 5653 5650 5648 5645 5644 5644 5642 5642 5640 5638 5637 5637 5637 5637 5637 5636 5634 5633 5633 5632 5630 5628 5627 5626 5624 5623 5621 5618 5618
5698 5695 5692 5688 5684 5680 5676 5672 5668 5663 5660 5657 5654 5653 5649 5646 5644 5642 5640 5639 5638 5637 5636 5635 5634 5633 5633 5633 5632 5632 5630 5628 5627 5625 5623 5621 5622 5620 5619 5617 5616 5613 5611
5693 5691 5688 5685 5681 5677 5674 5668 5664 5660 5656 5652 5649 5647 5645 5643 5640 5638 5637 5635 5634 5633 5632 5631 5630 5630 5630 5629 5627 5628 5626 5624 5622 5620 5619 5617 5614 5613 5612 5612 5610 5608 5605
5688 5687 5684 5680 5677 5674 5670 5666 5661 5657 5653 5649 5646 5643 5641 5638 5636 5634 5633 5631 5630 5630 5629 5628 5627 5627 5626 5625 5623 5622 5622 5620 5617 5615 5613 5611 5610 5607 5606 5604 5603 5602 5600
5682 5682 5679 5675 5672 5669 5666 5663 5659 5655 5651 5648 5644 5641 5638 5635 5632 5630 5629 5628 5627 5627 5626 5625 5624 5623 5622 5621 5619 5618 5617 5615 5613 5611 5608 5606 5604 5601 5600 5598 5598 5597 5597
5677 5675 5672 5670 5667 5665 5662 5660 5657 5653 5650 5646 5642 5638 5635 5632 5630 5629 5628 5626 5625 5624 5623 5622 5621 5620 5619 5617 5615 5613 5612 5610 5608 5607 5604 5602 5600 5597 5595 5594 5592 5591 5590
5673 5670 5667 5665 5662 5660 5658 5656 5654 5651 5648 5644 5641 5637 5634 5632 5630 5629 5627 5625 5623 5623 5621 5620 5618 5616 5615 5613 5609 5608 5608 5606 5605 5603 5601 5599 5595 5591 5588 5588 5587 5586 5585
5669 5667 5664 5661 5658 5655 5653 5652 5650 5648 5645 5642 5639 5636 5633 5631 5629 5627 5625 5623 5622 5620 5619 5617 5615 5613 5612 5605 5601 5600 5602 5603 5602 5600 5598 5596 5593 5588 5584 5581 5579 5578 5578
5665 5663 5660 5657 5654 5652 5650 5649 5648 5646 5643 5640 5637 5634 5632 5631 5628 5627 5624 5622 5619 5618 5616 5614 5613 5610 5606 5601 5598 5596 5598 5600 5599 5596 5594 5593 5592 5586 5584 5581 5577 5575 5571
5661 5659 5656 5655 5653 5651 5650 5647 5646 5644 5641 5638 5635 5634 5631 5630 5627 5625 5622 5620 5617 5615 5614 5612 5611 5608 5604 5599 5596 5594 5597 5598 5596 5593 5591 5588 5585 5582 5578 5578 5577 5576 5573
5658 5656 5654 5653 5651 5649 5647 5645 5643 5641 5640 5637 5634 5633 5631 5629 5626 5624 5621 5618 5616 5614 5613 5611 5609 5606 5603 5598 5595 5592 5597 5596 5594 5592 5588 5585 5582 5575 5571 5573 5573 5572 5570
5656 5654 5652 5651 5648 5647 5645 5643 5642 5640 5638 5636 5634 5633 5630 5627 5625 5622 5620 5618 5616 5615 5613 5611 5609 5606 5603 5597 5594 5590 5596 5595 5594 5591 5588 5580 5576 5571 5568 5569 5569 5567 5565
5653 5651 5650 5648 5646 5645 5643 5641 5640 5638 5637 5636 5634 5632 5630 5627 5624 5621 5619 5618 5617 5615 5612 5610 5608 5606 5601 5597 5592 5589 5591 5592 5592 5591 5589 5583 5573 5569 5566 5563 5563 5560 5557
5650 5649 5647 5646 5645 5643 5641 5639 5637 5638 5637 5636 5633 5631 5629 5627 5625 5621 5619 5618 5616 5614 5612 5610 5609 5608 5604 5598 5593 5589 5586 5585 5588 5587 5585 5580 5571 5567 5564 5562 5558 5555 5552
5648 5646 5645 5644 5643 5641 5640 5638 5637 5637 5636 5634 5633 5631 5629 5627 5625 5622 5621 5620 5617 5617 5616 5613 5611 5609 5606 5601 5593 5590 5587 5585 5584 5583 5577 5573 5569 5567 5566 5561 5557 5555 5556
5645 5644 5643 5642 5641 5640 5640 5638 5638 5637 5635 5634 5632 5631 5629 5628 5626 5625 5624 5622 5620 5618 5616 5614 5612 5609 5607 5602 5598 5595 5592 5586 5584 5582 5578 5573 5569 5567 5564 5562 5559 5556 5552
5644 5643 5641 5640 5640 5640 5639 5639 5638 5636 5635 5634 5633 5632 5632 5630 5627 5625 5621 5621 5617 5615 5613 5613 5611 5608 5605 5597 5589 5589 5591 5588 5584 5581 5581 5579 5576 5572 5567 5564 5559 5554 5550
5642 5641 5640 5640 5639 5639 5639 5639 5638 5636 5634 5633 5633 5634 5634 5631 5630 5627 5624 5617 5616 5612 5609 5605 5603 5603 5597 5592 5589 5586 5583 5581 5578 5580 5582 5578 5574 5570 5566 5561 5557 5552 5547